Year,Month,Day,Hour,Minute,Value (Times are PST for windspeed in km/hr)
2010,04,02,00,00,14.60
2010,04,02,00,01,11.20
2010,04,02,00,02,10.40
2010,04,02,00,03,9.70
2010,04,02,00,04,9.20
2010,04,02,00,05,8.60
2010,04,02,00,06,12.50
2010,04,02,00,07,8.40
2010,04,02,00,08,10.80
2010,04,02,00,09,11.90
2010,04,02,00,10,12.70
2010,04,02,00,11,8.70
2010,04,02,00,12,9.00
2010,04,02,00,13,8.00
2010,04,02,00,14,7.10
2010,04,02,00,15,5.70
2010,04,02,00,16,6.70
2010,04,02,00,17,7.50
2010,04,02,00,18,5.10
2010,04,02,00,19,17.30
2010,04,02,00,20,20.00
2010,04,02,00,21,16.70
2010,04,02,00,22,12.20
2010,04,02,00,23,14.10
2010,04,02,00,24,13.00
2010,04,02,00,25,11.90
2010,04,02,00,26,11.40
2010,04,02,00,27,10.40
2010,04,02,00,28,8.10
2010,04,02,00,29,9.50
2010,04,02,00,30,6.90
2010,04,02,00,31,9.30
2010,04,02,00,32,8.10
2010,04,02,00,33,4.30
2010,04,02,00,34,6.20
2010,04,02,00,35,7.30
2010,04,02,00,36,12.00
2010,04,02,00,37,7.40
2010,04,02,00,38,5.40
2010,04,02,00,39,9.20
2010,04,02,00,40,14.30
2010,04,02,00,41,7.60
2010,04,02,00,42,7.20
2010,04,02,00,43,10.70
2010,04,02,00,44,10.00
2010,04,02,00,45,11.40
2010,04,02,00,46,10.60
2010,04,02,00,47,11.60
2010,04,02,00,48,11.20
2010,04,02,00,49,14.70
2010,04,02,00,50,18.30
2010,04,02,00,51,12.70
2010,04,02,00,52,11.90
2010,04,02,00,53,9.30
2010,04,02,00,54,10.60
2010,04,02,00,55,10.00
2010,04,02,00,56,16.10
2010,04,02,00,57,18.50
2010,04,02,00,58,8.50
2010,04,02,00,59,10.20
2010,04,02,01,00,12.10
2010,04,02,01,01,9.40
2010,04,02,01,02,11.50
2010,04,02,01,03,16.30
2010,04,02,01,04,14.70
2010,04,02,01,05,14.60
2010,04,02,01,06,13.30
2010,04,02,01,07,19.60
2010,04,02,01,08,22.40
2010,04,02,01,09,14.50
2010,04,02,01,10,10.80
2010,04,02,01,11,12.60
2010,04,02,01,12,10.60
2010,04,02,01,13,17.90
2010,04,02,01,14,20.60
2010,04,02,01,15,16.60
2010,04,02,01,16,20.10
2010,04,02,01,17,18.50
2010,04,02,01,18,15.70
2010,04,02,01,19,14.60
2010,04,02,01,20,15.20
2010,04,02,01,21,20.00
2010,04,02,01,22,20.00
2010,04,02,01,23,21.00
2010,04,02,01,24,17.30
2010,04,02,01,25,19.20
2010,04,02,01,26,18.30
2010,04,02,01,27,12.80
2010,04,02,01,28,16.60
2010,04,02,01,29,18.80
2010,04,02,01,30,14.60
2010,04,02,01,31,9.30
2010,04,02,01,32,13.90
2010,04,02,01,33,12.30
2010,04,02,01,34,13.00
2010,04,02,01,35,12.00
2010,04,02,01,36,21.50
2010,04,02,01,37,27.90
2010,04,02,01,38,25.50
2010,04,02,01,39,31.80
2010,04,02,01,40,18.00
2010,04,02,01,41,16.40
2010,04,02,01,42,9.90
2010,04,02,01,43,17.00
2010,04,02,01,44,20.00
2010,04,02,01,45,23.70
2010,04,02,01,46,22.50
2010,04,02,01,47,18.60
2010,04,02,01,48,23.20
2010,04,02,01,49,31.00
2010,04,02,01,50,24.20
2010,04,02,01,51,19.80
2010,04,02,01,52,12.60
2010,04,02,01,53,15.80
2010,04,02,01,54,22.10
2010,04,02,01,55,14.10
2010,04,02,01,56,19.60
2010,04,02,01,57,17.90
2010,04,02,01,58,18.90
2010,04,02,01,59,21.10
2010,04,02,02,00,11.90
2010,04,02,02,01,17.40
2010,04,02,02,02,14.70
2010,04,02,02,03,17.50
2010,04,02,02,04,16.50
2010,04,02,02,05,21.30
2010,04,02,02,06,13.50
2010,04,02,02,07,15.20
2010,04,02,02,08,19.80
2010,04,02,02,09,18.60
2010,04,02,02,10,24.30
2010,04,02,02,11,19.90
2010,04,02,02,12,24.20
2010,04,02,02,13,22.50
2010,04,02,02,14,19.50
2010,04,02,02,15,15.60
2010,04,02,02,16,17.90
2010,04,02,02,17,16.10
2010,04,02,02,18,17.70
2010,04,02,02,19,17.10
2010,04,02,02,20,15.50
2010,04,02,02,21,16.00
2010,04,02,02,22,16.80
2010,04,02,02,23,14.70
2010,04,02,02,24,14.70
2010,04,02,02,25,14.60
2010,04,02,02,26,16.90
2010,04,02,02,27,24.10
2010,04,02,02,28,15.00
2010,04,02,02,29,16.70
2010,04,02,02,30,18.00
2010,04,02,02,31,11.10
2010,04,02,02,32,18.80
2010,04,02,02,33,19.10
2010,04,02,02,34,18.70
2010,04,02,02,35,14.50
2010,04,02,02,36,18.00
2010,04,02,02,37,14.70
2010,04,02,02,38,18.10
2010,04,02,02,39,16.70
2010,04,02,02,40,18.10
2010,04,02,02,41,12.80
2010,04,02,02,42,15.90
2010,04,02,02,43,19.50
2010,04,02,02,44,24.50
2010,04,02,02,45,18.90
2010,04,02,02,46,13.00
2010,04,02,02,47,13.60
2010,04,02,02,48,18.40
2010,04,02,02,49,16.10
2010,04,02,02,50,10.90
2010,04,02,02,51,9.50
2010,04,02,02,52,11.80
2010,04,02,02,53,12.20
2010,04,02,02,54,14.80
2010,04,02,02,55,23.70
2010,04,02,02,56,14.70
2010,04,02,02,57,17.80
2010,04,02,02,58,19.30
2010,04,02,02,59,22.60
2010,04,02,03,00,15.70
2010,04,02,03,01,15.00
2010,04,02,03,02,20.90
2010,04,02,03,03,18.30
2010,04,02,03,04,7.20
2010,04,02,03,05,13.20
2010,04,02,03,06,6.70
2010,04,02,03,07,11.60
2010,04,02,03,08,19.10
2010,04,02,03,09,15.70
2010,04,02,03,10,6.60
2010,04,02,03,11,13.70
2010,04,02,03,12,15.40
2010,04,02,03,13,12.10
2010,04,02,03,14,6.40
2010,04,02,03,15,5.70
2010,04,02,03,16,8.50
2010,04,02,03,17,4.90
2010,04,02,03,18,4.10
2010,04,02,03,19,9.10
2010,04,02,03,20,10.70
2010,04,02,03,21,18.10
2010,04,02,03,22,12.10
2010,04,02,03,23,10.10
2010,04,02,03,24,10.60
2010,04,02,03,25,13.60
2010,04,02,03,26,9.20
2010,04,02,03,27,6.00
2010,04,02,03,28,5.20
2010,04,02,03,29,2.30
2010,04,02,03,30,2.30
2010,04,02,03,31,3.50
2010,04,02,03,32,2.10
2010,04,02,03,33,2.70
2010,04,02,03,34,4.20
2010,04,02,03,35,9.70
2010,04,02,03,36,8.00
2010,04,02,03,37,6.10
2010,04,02,03,38,2.50
2010,04,02,03,39,0.50
2010,04,02,03,40,0.60
2010,04,02,03,41,0.00
2010,04,02,03,42,0.70
2010,04,02,03,43,3.50
2010,04,02,03,44,2.00
2010,04,02,03,45,1.90
2010,04,02,03,46,0.80
2010,04,02,03,47,1.40
2010,04,02,03,48,0.00
2010,04,02,03,49,0.00
2010,04,02,03,50,0.00
2010,04,02,03,51,0.10
2010,04,02,03,52,0.10
2010,04,02,03,53,0.10
2010,04,02,03,54,0.10
2010,04,02,03,55,1.20
2010,04,02,03,56,2.60
2010,04,02,03,57,0.20
2010,04,02,03,58,2.30
2010,04,02,03,59,0.90
2010,04,02,04,00,1.70
2010,04,02,04,01,1.90
2010,04,02,04,02,2.10
2010,04,02,04,03,4.60
2010,04,02,04,04,5.80
2010,04,02,04,05,5.60
2010,04,02,04,06,4.70
2010,04,02,04,07,5.80
2010,04,02,04,08,4.40
2010,04,02,04,09,5.60
2010,04,02,04,10,3.80
2010,04,02,04,11,5.10
2010,04,02,04,12,7.00
2010,04,02,04,13,7.70
2010,04,02,04,14,6.90
2010,04,02,04,15,9.70
2010,04,02,04,16,8.80
2010,04,02,04,17,6.70
2010,04,02,04,18,6.80
2010,04,02,04,19,7.10
2010,04,02,04,20,4.80
2010,04,02,04,21,5.70
2010,04,02,04,22,3.90
2010,04,02,04,23,3.20
2010,04,02,04,24,1.50
2010,04,02,04,25,2.70
2010,04,02,04,26,3.60
2010,04,02,04,27,4.80
2010,04,02,04,28,3.60
2010,04,02,04,29,3.90
2010,04,02,04,30,1.90
2010,04,02,04,31,1.20
2010,04,02,04,32,4.00
2010,04,02,04,33,1.90
2010,04,02,04,34,2.50
2010,04,02,04,35,6.20
2010,04,02,04,36,6.40
2010,04,02,04,37,5.80
2010,04,02,04,38,4.70
2010,04,02,04,39,6.40
2010,04,02,04,40,3.90
2010,04,02,04,41,2.50
2010,04,02,04,42,1.90
2010,04,02,04,43,0.70
2010,04,02,04,44,1.30
2010,04,02,04,45,0.30
2010,04,02,04,46,0.90
2010,04,02,04,47,3.30
2010,04,02,04,48,0.20
2010,04,02,04,49,1.20
2010,04,02,04,50,1.90
2010,04,02,04,51,7.50
2010,04,02,04,52,5.20
2010,04,02,04,53,15.80
2010,04,02,04,54,15.60
2010,04,02,04,55,21.60
2010,04,02,04,56,14.40
2010,04,02,04,57,16.30
2010,04,02,04,58,24.40
2010,04,02,04,59,25.30
2010,04,02,05,00,18.00
2010,04,02,05,01,10.90
2010,04,02,05,02,16.00
2010,04,02,05,03,23.40
2010,04,02,05,04,21.20
2010,04,02,05,05,25.20
2010,04,02,05,06,28.20
2010,04,02,05,07,18.30
2010,04,02,05,08,24.20
2010,04,02,05,09,22.80
2010,04,02,05,10,26.20
2010,04,02,05,11,24.40
2010,04,02,05,12,28.30
2010,04,02,05,13,24.90
2010,04,02,05,14,27.30
2010,04,02,05,15,25.70
2010,04,02,05,16,21.70
2010,04,02,05,17,23.70
2010,04,02,05,18,27.40
2010,04,02,05,19,18.60
2010,04,02,05,20,28.60
2010,04,02,05,21,32.10
2010,04,02,05,22,25.20
2010,04,02,05,23,23.50
2010,04,02,05,24,24.70
2010,04,02,05,25,24.70
2010,04,02,05,26,30.30
2010,04,02,05,27,28.00
2010,04,02,05,28,21.30
2010,04,02,05,29,21.20
2010,04,02,05,30,21.10
2010,04,02,05,31,18.70
2010,04,02,05,32,20.00
2010,04,02,05,33,24.80
2010,04,02,05,34,27.70
2010,04,02,05,35,20.80
2010,04,02,05,36,29.20
2010,04,02,05,37,28.50
2010,04,02,05,38,28.10
2010,04,02,05,39,23.20
2010,04,02,05,40,24.30
2010,04,02,05,41,24.60
2010,04,02,05,42,30.70
2010,04,02,05,43,23.00
2010,04,02,05,44,27.40
2010,04,02,05,45,20.40
2010,04,02,05,46,26.80
2010,04,02,05,47,21.80
2010,04,02,05,48,20.30
2010,04,02,05,49,17.20
2010,04,02,05,50,22.90
2010,04,02,05,51,20.40
2010,04,02,05,52,22.00
2010,04,02,05,53,28.50
2010,04,02,05,54,15.90
2010,04,02,05,55,15.50
2010,04,02,05,56,19.00
2010,04,02,05,57,31.20
2010,04,02,05,58,18.70
2010,04,02,05,59,18.10
2010,04,02,06,00,22.70
2010,04,02,06,01,22.10
2010,04,02,06,02,21.20
2010,04,02,06,03,23.90
2010,04,02,06,04,19.20
2010,04,02,06,05,18.80
2010,04,02,06,06,31.20
2010,04,02,06,07,19.50
2010,04,02,06,08,29.10
2010,04,02,06,09,23.30
2010,04,02,06,10,26.90
2010,04,02,06,11,30.30
2010,04,02,06,12,32.30
2010,04,02,06,13,28.20
2010,04,02,06,14,31.20
2010,04,02,06,15,31.50
2010,04,02,06,16,28.20
2010,04,02,06,17,31.30
2010,04,02,06,18,39.00
2010,04,02,06,19,25.80
2010,04,02,06,20,31.00
2010,04,02,06,21,32.80
2010,04,02,06,22,38.60
2010,04,02,06,23,30.50
2010,04,02,06,24,28.00
2010,04,02,06,25,27.40
2010,04,02,06,26,24.40
2010,04,02,06,27,36.20
2010,04,02,06,28,43.10
2010,04,02,06,29,32.90
2010,04,02,06,30,43.00
2010,04,02,06,31,33.20
2010,04,02,06,32,32.20
2010,04,02,06,33,30.60
2010,04,02,06,34,34.40
2010,04,02,06,35,34.80
2010,04,02,06,36,36.30
2010,04,02,06,37,43.70
2010,04,02,06,38,38.20
2010,04,02,06,39,43.40
2010,04,02,06,40,37.60
2010,04,02,06,41,41.50
2010,04,02,06,42,34.40
2010,04,02,06,43,39.70
2010,04,02,06,44,31.30
2010,04,02,06,45,30.50
2010,04,02,06,46,44.50
2010,04,02,06,47,33.40
2010,04,02,06,48,41.40
2010,04,02,06,49,38.10
2010,04,02,06,50,30.70
2010,04,02,06,51,33.80
2010,04,02,06,52,40.70
2010,04,02,06,53,38.60
2010,04,02,06,54,36.60
2010,04,02,06,55,32.50
2010,04,02,06,56,29.90
2010,04,02,06,57,27.60
2010,04,02,06,58,41.80
2010,04,02,06,59,41.80
2010,04,02,07,00,40.50
2010,04,02,07,01,36.70
2010,04,02,07,02,33.50
2010,04,02,07,03,39.90
2010,04,02,07,04,35.80
2010,04,02,07,05,36.80
2010,04,02,07,06,42.60
2010,04,02,07,07,41.30
2010,04,02,07,08,26.60
2010,04,02,07,09,26.60
2010,04,02,07,10,33.40
2010,04,02,07,11,27.40
2010,04,02,07,12,36.90
2010,04,02,07,13,44.50
2010,04,02,07,14,35.50
2010,04,02,07,15,32.10
2010,04,02,07,16,27.90
2010,04,02,07,17,24.00
2010,04,02,07,18,21.80
2010,04,02,07,19,24.90
2010,04,02,07,20,35.00
2010,04,02,07,21,29.00
2010,04,02,07,22,20.80
2010,04,02,07,23,23.30
2010,04,02,07,24,28.80
2010,04,02,07,25,37.30
2010,04,02,07,26,40.50
2010,04,02,07,27,34.30
2010,04,02,07,28,31.70
2010,04,02,07,29,24.40
2010,04,02,07,30,31.80
2010,04,02,07,31,26.80
2010,04,02,07,32,27.40
2010,04,02,07,33,34.00
2010,04,02,07,34,36.40
2010,04,02,07,35,31.50
2010,04,02,07,36,23.30
2010,04,02,07,37,40.50
2010,04,02,07,38,38.30
2010,04,02,07,39,38.70
2010,04,02,07,40,38.00
2010,04,02,07,41,43.10
2010,04,02,07,42,33.60
2010,04,02,07,43,26.90
2010,04,02,07,44,33.10
2010,04,02,07,45,33.40
2010,04,02,07,46,34.70
2010,04,02,07,47,44.30
2010,04,02,07,48,43.30
2010,04,02,07,49,32.60
2010,04,02,07,50,32.00
2010,04,02,07,51,33.20
2010,04,02,07,52,29.50
2010,04,02,07,53,30.40
2010,04,02,07,54,26.90
2010,04,02,07,55,20.80
2010,04,02,07,56,26.60
2010,04,02,07,57,28.80
2010,04,02,07,58,31.00
2010,04,02,07,59,23.50
2010,04,02,08,00,31.30
2010,04,02,08,01,31.90
2010,04,02,08,02,33.60
2010,04,02,08,03,30.70
2010,04,02,08,04,27.20
2010,04,02,08,05,26.70
2010,04,02,08,06,26.80
2010,04,02,08,07,28.20
2010,04,02,08,08,37.80
2010,04,02,08,09,21.60
2010,04,02,08,10,28.50
2010,04,02,08,11,34.20
2010,04,02,08,12,30.90
2010,04,02,08,13,30.50
2010,04,02,08,14,38.10
2010,04,02,08,15,33.40
2010,04,02,08,16,33.30
2010,04,02,08,17,39.40
2010,04,02,08,18,33.30
2010,04,02,08,19,31.30
2010,04,02,08,20,27.80
2010,04,02,08,21,32.10
2010,04,02,08,22,28.60
2010,04,02,08,23,39.60
2010,04,02,08,24,31.00
2010,04,02,08,25,28.90
2010,04,02,08,26,27.80
2010,04,02,08,27,29.90
2010,04,02,08,28,36.00
2010,04,02,08,29,34.40
2010,04,02,08,30,30.10
2010,04,02,08,31,29.00
2010,04,02,08,32,36.00
2010,04,02,08,33,25.00
2010,04,02,08,34,30.40
2010,04,02,08,35,28.00
2010,04,02,08,36,34.60
2010,04,02,08,37,28.20
2010,04,02,08,38,36.80
2010,04,02,08,39,27.80
2010,04,02,08,40,25.40
2010,04,02,08,41,27.90
2010,04,02,08,42,30.10
2010,04,02,08,43,20.40
2010,04,02,08,44,21.90
2010,04,02,08,45,26.40
2010,04,02,08,46,38.50
2010,04,02,08,47,30.00
2010,04,02,08,48,26.80
2010,04,02,08,49,40.40
2010,04,02,08,50,29.30
2010,04,02,08,51,29.70
2010,04,02,08,52,27.00
2010,04,02,08,53,29.50
2010,04,02,08,54,31.90
2010,04,02,08,55,34.80
2010,04,02,08,56,26.20
2010,04,02,08,57,26.90
2010,04,02,08,58,22.40
2010,04,02,08,59,16.30
2010,04,02,09,00,22.90
2010,04,02,09,01,27.50
2010,04,02,09,02,27.70
2010,04,02,09,03,25.60
2010,04,02,09,04,22.70
2010,04,02,09,05,23.40
2010,04,02,09,06,25.10
2010,04,02,09,07,21.80
2010,04,02,09,08,26.10
2010,04,02,09,09,27.40
2010,04,02,09,10,27.00
2010,04,02,09,11,19.00
2010,04,02,09,12,33.00
2010,04,02,09,13,32.00
2010,04,02,09,14,33.40
2010,04,02,09,15,25.50
2010,04,02,09,16,24.90
2010,04,02,09,17,28.00
2010,04,02,09,18,22.90
2010,04,02,09,19,29.80
2010,04,02,09,20,34.10
2010,04,02,09,21,32.80
2010,04,02,09,22,31.30
2010,04,02,09,23,40.60
2010,04,02,09,24,27.40
2010,04,02,09,25,32.20
2010,04,02,09,26,31.00
2010,04,02,09,27,31.80
2010,04,02,09,28,38.20
2010,04,02,09,29,31.70
2010,04,02,09,30,30.70
2010,04,02,09,31,31.20
2010,04,02,09,32,33.70
2010,04,02,09,33,23.80
2010,04,02,09,34,30.90
2010,04,02,09,35,38.50
2010,04,02,09,36,31.20
2010,04,02,09,37,18.70
2010,04,02,09,38,33.70
2010,04,02,09,39,33.20
2010,04,02,09,40,27.30
2010,04,02,09,41,35.80
2010,04,02,09,42,27.10
2010,04,02,09,43,21.20
2010,04,02,09,44,14.10
2010,04,02,09,45,30.30
2010,04,02,09,46,32.50
2010,04,02,09,47,35.90
2010,04,02,09,48,35.20
2010,04,02,09,49,34.30
2010,04,02,09,50,32.90
2010,04,02,09,51,34.40
2010,04,02,09,52,31.10
2010,04,02,09,53,35.70
2010,04,02,09,54,49.70
2010,04,02,09,55,45.40
2010,04,02,09,56,29.10
2010,04,02,09,57,34.80
2010,04,02,09,58,36.20
2010,04,02,09,59,38.50
2010,04,02,10,00,29.70
2010,04,02,10,01,26.80
2010,04,02,10,02,32.70
2010,04,02,10,03,26.60
2010,04,02,10,04,30.70
2010,04,02,10,05,40.10
2010,04,02,10,06,29.40
2010,04,02,10,07,35.60
2010,04,02,10,08,31.20
2010,04,02,10,09,26.60
2010,04,02,10,10,31.70
2010,04,02,10,11,30.50
2010,04,02,10,12,21.10
2010,04,02,10,13,32.10
2010,04,02,10,14,22.20
2010,04,02,10,15,26.20
2010,04,02,10,16,20.00
2010,04,02,10,17,34.10
2010,04,02,10,18,34.80
2010,04,02,10,19,36.60
2010,04,02,10,20,28.10
2010,04,02,10,21,32.00
2010,04,02,10,22,29.30
2010,04,02,10,23,32.10
2010,04,02,10,24,29.70
2010,04,02,10,25,36.10
2010,04,02,10,26,42.10
2010,04,02,10,27,41.00
2010,04,02,10,28,28.00
2010,04,02,10,29,40.70
2010,04,02,10,30,32.90
2010,04,02,10,31,30.80
2010,04,02,10,32,32.20
2010,04,02,10,33,22.00
2010,04,02,10,34,26.00
2010,04,02,10,35,27.30
2010,04,02,10,36,39.50
2010,04,02,10,37,39.30
2010,04,02,10,38,41.60
2010,04,02,10,39,37.10
2010,04,02,10,40,40.60
2010,04,02,10,41,39.40
2010,04,02,10,42,35.10
2010,04,02,10,43,32.30
2010,04,02,10,44,31.40
2010,04,02,10,45,44.90
2010,04,02,10,46,46.20
2010,04,02,10,47,36.90
2010,04,02,10,48,37.30
2010,04,02,10,49,44.70
2010,04,02,10,50,36.40
2010,04,02,10,51,33.10
2010,04,02,10,52,44.40
2010,04,02,10,53,37.90
2010,04,02,10,54,26.30
2010,04,02,10,55,18.00
2010,04,02,10,56,32.80
2010,04,02,10,57,39.30
2010,04,02,10,58,39.30
2010,04,02,10,59,25.50
2010,04,02,11,00,33.30
2010,04,02,11,01,21.90
2010,04,02,11,02,33.60
2010,04,02,11,03,35.30
2010,04,02,11,04,49.20
2010,04,02,11,05,46.20
2010,04,02,11,06,32.30
2010,04,02,11,07,25.50
2010,04,02,11,08,21.20
2010,04,02,11,09,38.10
2010,04,02,11,10,26.30
2010,04,02,11,11,35.50
2010,04,02,11,12,29.80
2010,04,02,11,13,36.00
2010,04,02,11,14,33.90
2010,04,02,11,15,29.30
2010,04,02,11,16,32.10
2010,04,02,11,17,25.00
2010,04,02,11,18,29.00
2010,04,02,11,19,29.30
2010,04,02,11,20,36.60
2010,04,02,11,21,37.90
2010,04,02,11,22,35.60
2010,04,02,11,23,30.30
2010,04,02,11,24,33.70
2010,04,02,11,25,39.80
2010,04,02,11,26,37.40
2010,04,02,11,27,33.40
2010,04,02,11,28,26.00
2010,04,02,11,29,25.20
2010,04,02,11,30,31.00
2010,04,02,11,31,30.30
2010,04,02,11,32,42.00
2010,04,02,11,33,32.30
2010,04,02,11,34,32.30
2010,04,02,11,35,29.40
2010,04,02,11,36,38.10
2010,04,02,11,37,40.20
2010,04,02,11,38,25.90
2010,04,02,11,39,29.90
2010,04,02,11,40,29.10
2010,04,02,11,41,35.40
2010,04,02,11,42,40.20
2010,04,02,11,43,32.60
2010,04,02,11,44,36.50
2010,04,02,11,45,32.10
2010,04,02,11,46,32.10
2010,04,02,11,47,37.00
2010,04,02,11,48,39.90
2010,04,02,11,49,33.90
2010,04,02,11,50,37.30
2010,04,02,11,51,45.40
2010,04,02,11,52,30.70
2010,04,02,11,53,47.00
2010,04,02,11,54,44.80
2010,04,02,11,55,37.90
2010,04,02,11,56,41.40
2010,04,02,11,57,35.20
2010,04,02,11,58,35.40
2010,04,02,11,59,33.70
2010,04,02,12,00,28.90
2010,04,02,12,01,34.00
2010,04,02,12,02,40.70
2010,04,02,12,03,40.80
2010,04,02,12,04,38.50
2010,04,02,12,05,41.00
2010,04,02,12,06,40.60
2010,04,02,12,07,27.70
2010,04,02,12,08,34.70
2010,04,02,12,09,28.80
2010,04,02,12,10,30.70
2010,04,02,12,11,30.50
2010,04,02,12,12,41.00
2010,04,02,12,13,36.10
2010,04,02,12,14,29.70
2010,04,02,12,15,33.20
2010,04,02,12,16,29.60
2010,04,02,12,17,33.10
2010,04,02,12,18,37.80
2010,04,02,12,19,27.80
2010,04,02,12,20,28.80
2010,04,02,12,21,28.70
2010,04,02,12,22,31.90
2010,04,02,12,23,38.40
2010,04,02,12,24,38.30
2010,04,02,12,25,38.40
2010,04,02,12,26,36.90
2010,04,02,12,27,39.60
2010,04,02,12,28,41.70
2010,04,02,12,29,34.60
2010,04,02,12,30,29.20
2010,04,02,12,31,32.20
2010,04,02,12,32,26.20
2010,04,02,12,33,20.90
2010,04,02,12,34,24.80
2010,04,02,12,35,34.10
2010,04,02,12,36,25.20
2010,04,02,12,37,31.30
2010,04,02,12,38,28.90
2010,04,02,12,39,31.40
2010,04,02,12,40,41.10
2010,04,02,12,41,28.70
2010,04,02,12,42,30.90
2010,04,02,12,43,30.90
2010,04,02,12,44,28.40
2010,04,02,12,45,29.60
2010,04,02,12,46,26.40
2010,04,02,12,47,34.00
2010,04,02,12,48,25.50
2010,04,02,12,49,27.80
2010,04,02,12,50,29.30
2010,04,02,12,51,23.20
2010,04,02,12,52,23.40
2010,04,02,12,53,21.90
2010,04,02,12,54,23.20
2010,04,02,12,55,33.00
2010,04,02,12,56,35.80
2010,04,02,12,57,25.70
2010,04,02,12,58,26.30
2010,04,02,12,59,22.50
2010,04,02,13,00,28.20
2010,04,02,13,01,31.00
2010,04,02,13,02,27.50
2010,04,02,13,03,24.80
2010,04,02,13,04,26.90
2010,04,02,13,05,26.00
2010,04,02,13,06,27.70
2010,04,02,13,07,32.30
2010,04,02,13,08,28.80
2010,04,02,13,09,27.00
2010,04,02,13,10,27.90
2010,04,02,13,11,32.00
2010,04,02,13,12,29.10
2010,04,02,13,13,23.30
2010,04,02,13,14,37.40
2010,04,02,13,15,29.30
2010,04,02,13,16,26.20
2010,04,02,13,17,28.30
2010,04,02,13,18,27.90
2010,04,02,13,19,32.70
2010,04,02,13,20,30.60
2010,04,02,13,21,27.70
2010,04,02,13,22,31.80
2010,04,02,13,23,27.70
2010,04,02,13,24,27.90
2010,04,02,13,25,22.50
2010,04,02,13,26,19.50
2010,04,02,13,27,27.50
2010,04,02,13,28,23.90
2010,04,02,13,29,24.00
2010,04,02,13,30,25.00
2010,04,02,13,31,24.10
2010,04,02,13,32,21.80
2010,04,02,13,33,28.60
2010,04,02,13,34,33.50
2010,04,02,13,35,30.30
2010,04,02,13,36,30.50
2010,04,02,13,37,29.50
2010,04,02,13,38,22.00
2010,04,02,13,39,24.20
2010,04,02,13,40,23.00
2010,04,02,13,41,17.00
2010,04,02,13,42,25.00
2010,04,02,13,43,24.70
2010,04,02,13,44,30.30
2010,04,02,13,45,24.90
2010,04,02,13,46,29.60
2010,04,02,13,47,26.30
2010,04,02,13,48,28.80
2010,04,02,13,49,26.00
2010,04,02,13,50,34.40
2010,04,02,13,51,29.70
2010,04,02,13,52,25.40
2010,04,02,13,53,19.60
2010,04,02,13,54,23.10
2010,04,02,13,55,21.30
2010,04,02,13,56,22.80
2010,04,02,13,57,28.60
2010,04,02,13,58,28.50
2010,04,02,13,59,35.30
2010,04,02,14,00,33.60
2010,04,02,14,01,22.10
2010,04,02,14,02,32.40
2010,04,02,14,03,24.60
2010,04,02,14,04,25.70
2010,04,02,14,05,20.90
2010,04,02,14,06,26.30
2010,04,02,14,07,33.10
2010,04,02,14,08,34.10
2010,04,02,14,09,22.00
2010,04,02,14,10,30.20
2010,04,02,14,11,34.10
2010,04,02,14,12,27.90
2010,04,02,14,13,27.60
2010,04,02,14,14,27.10
2010,04,02,14,15,25.80
2010,04,02,14,16,25.30
2010,04,02,14,17,28.10
2010,04,02,14,18,16.70
2010,04,02,14,19,20.90
2010,04,02,14,20,23.30
2010,04,02,14,21,20.20
2010,04,02,14,22,22.90
2010,04,02,14,23,20.80
2010,04,02,14,24,30.90
2010,04,02,14,25,20.90
2010,04,02,14,26,13.50
2010,04,02,14,27,25.00
2010,04,02,14,28,24.20
2010,04,02,14,29,16.90
2010,04,02,14,30,22.50
2010,04,02,14,31,19.70
2010,04,02,14,32,28.50
2010,04,02,14,33,23.50
2010,04,02,14,34,15.80
2010,04,02,14,35,18.80
2010,04,02,14,36,20.80
2010,04,02,14,37,17.50
2010,04,02,14,38,22.40
2010,04,02,14,39,16.80
2010,04,02,14,40,28.20
2010,04,02,14,41,16.60
2010,04,02,14,42,19.50
2010,04,02,14,43,21.60
2010,04,02,14,44,26.20
2010,04,02,14,45,23.00
2010,04,02,14,46,18.10
2010,04,02,14,47,17.00
2010,04,02,14,48,21.10
2010,04,02,14,49,18.00
2010,04,02,14,50,18.30
2010,04,02,14,51,23.30
2010,04,02,14,52,24.30
2010,04,02,14,53,19.30
2010,04,02,14,54,16.20
2010,04,02,14,55,18.80
2010,04,02,14,56,17.00
2010,04,02,14,57,21.30
2010,04,02,14,58,16.60
2010,04,02,14,59,18.00
2010,04,02,15,00,20.50
2010,04,02,15,01,24.90
2010,04,02,15,02,17.90
2010,04,02,15,03,9.80
2010,04,02,15,04,17.20
2010,04,02,15,05,15.30
2010,04,02,15,06,25.10
2010,04,02,15,07,20.90
2010,04,02,15,08,18.00
2010,04,02,15,09,19.40
2010,04,02,15,10,18.60
2010,04,02,15,11,17.40
2010,04,02,15,12,22.80
2010,04,02,15,13,18.70
2010,04,02,15,14,17.00
2010,04,02,15,15,19.50
2010,04,02,15,16,24.90
2010,04,02,15,17,15.40
2010,04,02,15,18,17.90
2010,04,02,15,19,16.60
2010,04,02,15,20,16.10
2010,04,02,15,21,15.70
2010,04,02,15,22,23.70
2010,04,02,15,23,20.90
2010,04,02,15,24,22.40
2010,04,02,15,25,19.60
2010,04,02,15,26,19.00
2010,04,02,15,27,24.90
2010,04,02,15,28,19.60
2010,04,02,15,29,18.30
2010,04,02,15,30,18.30
2010,04,02,15,31,22.00
2010,04,02,15,32,20.80
2010,04,02,15,33,16.50
2010,04,02,15,34,25.00
2010,04,02,15,35,22.40
2010,04,02,15,36,23.60
2010,04,02,15,37,19.00
2010,04,02,15,38,25.30
2010,04,02,15,39,24.10
2010,04,02,15,40,23.30
2010,04,02,15,41,20.40
2010,04,02,15,42,17.00
2010,04,02,15,43,18.30
2010,04,02,15,44,17.20
2010,04,02,15,45,15.80
2010,04,02,15,46,15.70
2010,04,02,15,47,14.90
2010,04,02,15,48,16.10
2010,04,02,15,49,23.70
2010,04,02,15,50,26.90
2010,04,02,15,51,23.30
2010,04,02,15,52,21.80
2010,04,02,15,53,17.50
2010,04,02,15,54,17.80
2010,04,02,15,55,23.50
2010,04,02,15,56,16.30
2010,04,02,15,57,22.30
2010,04,02,15,58,15.50
2010,04,02,15,59,14.90
2010,04,02,16,00,18.00
2010,04,02,16,01,14.80
2010,04,02,16,02,15.70
2010,04,02,16,03,22.70
2010,04,02,16,04,18.70
2010,04,02,16,05,8.70
2010,04,02,16,06,11.50
2010,04,02,16,07,18.40
2010,04,02,16,08,19.50
2010,04,02,16,09,15.90
2010,04,02,16,10,16.60
2010,04,02,16,11,16.90
2010,04,02,16,12,20.00
2010,04,02,16,13,20.80
2010,04,02,16,14,21.20
2010,04,02,16,15,17.10
2010,04,02,16,16,21.10
2010,04,02,16,17,17.30
2010,04,02,16,18,17.70
2010,04,02,16,19,21.80
2010,04,02,16,20,17.80
2010,04,02,16,21,15.70
2010,04,02,16,22,20.70
2010,04,02,16,23,15.40
2010,04,02,16,24,16.80
2010,04,02,16,25,20.50
2010,04,02,16,26,20.50
2010,04,02,16,27,16.60
2010,04,02,16,28,17.00
2010,04,02,16,29,17.80
2010,04,02,16,30,14.60
2010,04,02,16,31,15.00
2010,04,02,16,32,17.80
2010,04,02,16,33,14.50
2010,04,02,16,34,17.30
2010,04,02,16,35,21.40
2010,04,02,16,36,23.50
2010,04,02,16,37,16.60
2010,04,02,16,38,16.40
2010,04,02,16,39,18.00
2010,04,02,16,40,23.10
2010,04,02,16,41,16.70
2010,04,02,16,42,19.10
2010,04,02,16,43,15.50
2010,04,02,16,44,19.40
2010,04,02,16,45,21.20
2010,04,02,16,46,20.20
2010,04,02,16,47,19.00
2010,04,02,16,48,19.00
2010,04,02,16,49,33.80
2010,04,02,16,50,33.80
2010,04,02,16,51,33.80
2010,04,02,16,52,27.70
2010,04,02,16,53,25.90
2010,04,02,16,54,20.90
2010,04,02,16,55,20.90
2010,04,02,16,56,16.00
2010,04,02,16,57,17.70
2010,04,02,16,58,18.40
2010,04,02,16,59,17.80
2010,04,02,17,00,12.50
2010,04,02,17,01,17.60
2010,04,02,17,02,19.30
2010,04,02,17,03,17.50
2010,04,02,17,04,16.50
2010,04,02,17,05,15.30
2010,04,02,17,06,23.50
2010,04,02,17,07,19.90
2010,04,02,17,08,18.00
2010,04,02,17,09,14.60
2010,04,02,17,10,15.60
2010,04,02,17,11,15.80
2010,04,02,17,12,9.40
2010,04,02,17,13,5.20
2010,04,02,17,14,11.50
2010,04,02,17,15,15.00
2010,04,02,17,16,9.70
2010,04,02,17,17,13.20
2010,04,02,17,18,10.30
2010,04,02,17,19,6.30
2010,04,02,17,20,6.60
2010,04,02,17,21,11.90
2010,04,02,17,22,11.60
2010,04,02,17,23,16.90
2010,04,02,17,24,15.90
2010,04,02,17,25,6.70